sat.trackr.live / text

‹ back to catalog

STARLINK-1928

NORAD 46758 · 2020-074V

PAYLOAD ACTIVE UNKNOWN

§ Identity

Operator
Country
US
Launch date
2020-10-24
Launch site
AFETR
Launch vehicle
Mass (kg)
RCS (m²)

Purposes: comms

External: N2YO · Heavens-Above · Gunter

§ Orbital elements

Epoch: 2026-05-25T00:00:02.000160Z

Period
90.74 min
Inclination
53.0382°
Eccentricity
0.0007305
Mean motion
15.86883524 rev/d
Perigee alt
306.1 km
Apogee alt
315.9 km
Semi-major
6,689.2 km
B*
6.9693e-4
RAAN
264.0137°
Arg perigee
292.0801°
Mean anomaly
44.2620°
Rev number
601

§ Raw data

STARLINK-19281 46758U 20074V   26145.00002315  .00186562  00000+0  69693-3 0  99952 46758  53.0382 264.0137 0007305 292.0801  44.2620 15.86883524  6018

JSON: /api/v1/satellites/46758 · /tle

For live sub-satellite position, see the globe view (requires WebGL).

§ Visibility from observer

Set your observer location to see the next 7 days of passes ≥ 10°. The values pass through the URL so the page stays shareable.

No JS? Fill the form by hand. The geolocation button needs JavaScript.